FW5819 Weather Reports


Display with metric or nautical units.
time (UTC)temp
F
wind
direction
speed
MPH
gust
MPH
rain 1hr
in
rain 24hr
in
rain mn
in
humidity
%
barometer
mb
20260503203040 61 129 6.0 15.0 0.00 0.00 0.00 45 1012.3
20260503201543 61 182 5.0 16.0 0.00 0.00 0.00 44 1012.4
20260503200035 63 321 6.0 18.0 0.00 0.00 0.00 41 1012.7
20260503194533 62 205 6.0 21.0 0.00 0.00 0.00 43 1012.9
20260503193031 61 249 4.0 15.0 0.00 0.00 0.00 46 1013.1
20260503191538 61 163 7.0 19.0 0.00 0.00 0.00 44 1013.4
20260503190041 61 288 7.0 17.0 0.00 0.00 0.00 45 1013.5
20260503184538 62 254 7.0 19.0 0.00 0.00 0.00 45 1013.6
20260503183035 61 262 4.0 14.0 0.00 0.00 0.00 49 1013.9
20260503181535 60 86 5.0 17.0 0.00 0.00 0.00 45 1013.9
20260503180045 61 267 6.0 15.0 0.00 0.00 0.00 44 1014.2
20260503174535 61 286 5.0 15.0 0.00 0.00 0.00 46 1014.2
20260503173040 60 218 7.0 15.0 0.00 0.00 0.00 47 1014.4
20260503171536 60 308 7.0 16.0 0.00 0.00 0.00 47 1014.7
20260503081535 35 174 0.0 3.0 0.00 0.12 0.00 82 1016.1
20260503071535 35 0 0.0 1.0 0.00 0.12 0.00 84 1016.2
20260503060105 36 0 0.0 2.0 0.00 0.12 0.00 84 1016.5
20260503054538 36 0 0.0 3.0 0.00 0.12 0.00 84 1016.6
20260503053034 36 212 0.0 3.0 0.00 0.12 0.00 84 1016.6
20260503051532 36 0 0.0 1.0 0.00 0.12 0.00 83 1016.6
20260503050037 37 0 0.0 2.0 0.00 0.12 0.00 82 1016.5
20260503044536 37 0 0.0 1.0 0.00 0.15 0.00 81 1016.7
20260503043046 38 0 0.0 1.0 0.00 0.15 0.00 80 1016.6
20260503041535 39 0 0.0 2.0 0.00 0.15 0.00 79 1016.7
20260503040045 40 250 0.0 1.0 0.00 0.15 0.00 78 1016.7
20260503034532 41 160 0.0 3.0 0.00 0.15 0.15 77 1016.9
20260503033036 41 0 1.0 4.0 0.00 0.15 0.15 77 1016.9
20260503031534 41 0 0.0 2.0 0.00 0.15 0.15 77 1017.1
20260503030035 41 139 0.0 3.0 0.00 0.15 0.15 77 1017.1
20260503024536 42 217 0.0 2.0 0.00 0.20 0.15 77 1017.2
20260503023034 42 184 0.0 3.0 0.00 0.20 0.15 76 1017.3
20260503021547 42 138 0.0 2.0 0.00 0.20 0.15 76 1017.2
20260503020046 42 173 0.0 2.0 0.00 0.20 0.15 75 1017.3
20260503014535 42 0 0.0 2.0 0.00 0.21 0.15 75 1017.1
20260503013035 42 0 0.0 0.0 0.00 0.21 0.15 75 1017.2
20260503011532 42 0 0.0 1.0 0.00 0.21 0.15 73 1017.0
20260503010032 42 0 0.0 0.0 0.00 0.21 0.15 72 1017.0
20260503004536 42 0 0.0 0.0 0.00 0.21 0.15 70 1016.9
20260503003049 43 250 0.0 1.0 0.00 0.21 0.15 66 1016.8
20260503001538 44 267 0.0 1.0 0.00 0.21 0.15 62 1016.8
20260503000035 44 0 0.0 2.0 0.00 0.21 0.15 61 1016.7
20260502234534 45 0 1.0 3.0 0.00 0.21 0.15 60 1016.8
20260502233035 45 291 0.0 6.0 0.00 0.21 0.15 62 1016.8
20260502231533 45 329 2.0 6.0 0.00 0.21 0.15 59 1016.7
20260502230036 45 35 2.0 7.0 0.00 0.21 0.15 61 1016.9
20260502224537 45 328 1.0 4.0 0.00 0.21 0.15 64 1016.9
20260502223034 45 12 1.0 3.0 0.00 0.21 0.15 65 1016.8
20260502221531 45 306 3.0 6.0 0.00 0.21 0.15 64 1017.0
20260502220036 45 286 1.0 7.0 0.00 0.21 0.15 62 1017.0
20260502214537 46 309 1.0 3.0 0.00 0.21 0.15 62 1017.0
20260502213051 48 17 1.0 10.0 0.00 0.21 0.15 60 1016.9
20260502211537 47 34 3.0 9.0 0.00 0.21 0.15 65 1016.8
20260502210037 46 298 3.0 12.0 0.00 0.21 0.15 65 1016.8
20260502204542 45 77 2.0 11.0 0.00 0.21 0.15 66 1016.9